SCP
0 0 0 0 0 0 0 0 0 0 0 0 0 0 -0 0 0 0 0 0 0 -0 0 0 0 0 0 0 0 1 1 1 1 1 1 1 1 1 1 0 0 0 0
0 0 0 0 0 0 0 0 0 0 0 0 0 0 -0 0 0 0 0 0 -0 0 0 0 0 -0 0 0 0 0 0 0 1 0 1 1 1 0 1 0 0 0 0
0 0 0 0 0 0 0 0 0 0 0 0 0 0 0 0 0 0 0 0 0 0 0 0 0 0 0 0 0 0 0 0 1 0 1 1 0 0 0 0 0 0 0
0 0 0 0 0 0 0 0 0 0 0 0 0 0 0 0 0 0 0 0 0 -0 0 0 0 0 0 0 0 0 0 0 0 1 1 1 0 0 0 0 0 0 0
0 0 0 0 0 0 0 0 0 0 0 0 0 0 0 0 0 0 0 -0 0 -0 -0 0 0 0 0 0 0 0 0 1 0 1 1 1 1 1 0 0 0 0 0
-0 0 0 0 0 0 0 0 0 0 0 0 0 0 0 0 0 0 0 -0 0 0 -0 0 0 0 0 0 0 0 0 1 1 1 1 1 0 0 0 0 0 0 0
0 0 -0 0 0 0 0 0 0 0 0 0 0 0 0 0 -0 -0 -0 0 0 0 -0 -0 0 0 0 0 0 0 0 0 1 1 0 0 0 0 0 0 0 0 0
-0 -0 -0 -0 0 0 0 0 0 0 0 0 0 0 0 0 0 0 0 0 0 0 0 -0 -0 0 0 0 0 1 1 1 1 0 0 0 0 0 0 0 0 0 0
-0 -0 -0 -0 0 -0 0 0 0 0 0 0 0 0 0 0 0 0 0 0 0 0 0 0 0 -0 0 0 0 1 0 0 1 0 0 0 0 0 0 0 0 0 0
-0 -0 -0 -0 -0 -0 0 0 0 0 0 -0 0 0 0 0 0 0 0 0 0 0 0 0 0 0 0 0 0 0 0 0 0 0 0 0 0 0 0 0 0 0 0
-0 -0 -0 -0 -0 -0 -0 0 0 0 0 -0 0 0 0 0 0 0 0 0 0 0 0 0 0 0 0 0 0 0 0 0 0 0 0 0 0 0 0 0 0 0 0
-0 -0 -0 -0 -0 -0 -0 -0 -0 0 0 -0 0 0 0 0 0 0 0 0 0 0 0 0 0 0 0 0 0 -0 0 0 0 0 0 0 0 0 0 0 0 0 0
-0 -0 -0 -0 -0 -0 -0 -0 -0 -0 -0 -0 0 0 0 0 0 0 0 0 0 0 -0 0 -0 0 0 0 0 -0 -0 -0 -0 0 0 0 0 0 -0 0 0 0 0
-0 -0 -0 -0 -0 -0 -0 -0 -0 -0 0 -0 0 0 0 0 0 0 0 0 0 0 -0 0 0 0 0 0 0 0 0 0 -0 -0 0 0 -0 -0 0 0 0 0 0
-0 -0 -0 -0 -0 -0 -0 -0 -0 -0 -0 -0 -0 0 0 0 0 0 0 0 0 0 0 0 0 0 0 0 0 0 0 -0 -0 -0 -0 0 0 0 0 -0 -0 0 0
-0 -0 -0 -0 -0 -0 -0 -0 -0 -0 -0 -0 -0 -0 -0 -0 -0 0 -0 0 0 0 0 0 0 0 0 0 0 0 0 0 0 0 0 0 0 0 0 0 0 0 0
-0 -0 -0 -0 -0 -0 -0 -0 -0 -0 -0 -0 -0 -0 -0 -0 0 0 -0 0 0 0 0 0 -0 0 0 0 0 0 0 0 0 0 0 0 0 0 0 0 0 0 0
-0 -0 -0 -0 -0 -0 -0 -0 -0 -0 -0 -0 -0 -0 -0 -0 -0 0 0 0 0 0 0 0 -0 0 0 0 0 0 0 0 0 0 0 0 0 0 -0 -0 -0 -0 -0
-0 -0 -0 -0 -0 -0 -0 -0 -0 -0 -0 -0 -0 -0 -0 -0 0 0 0 -0 -0 0 0 -0 -0 -0 0 0 0 0 -0 0 0 0 0 -0 -0 -0 0 -0 -0 0 -0
-0 -0 -0 -0 -0 -0 -0 -0 -0 -0 -0 -0 -0 -0 -0 -0 -0 0 0 0 0 0 0 0 -0 -0 -0 -0 0 0 0 0 -0 -0 -0 0 -0 -0 -0 -0 0 0 0
0 -0 -0 -0 -0 -0 -0 -0 -0 -0 -0 -0 -0 -0 -0 -0 -0 0 -0 -0 0 0 -0 0 0 0 0 0 0 0 -0 -0 -0 -0 0 0 0 0 0 0 0 0 0
-0 -0 -0 -0 -0 -0 -0 -0 -0 -0 -0 -0 -0 -0 -0 -0 -0 -0 -0 -0 0 0 0 0 0 0 0 0 0 0 0 0 0 0 0 0 0 0 0 0 0 0 0
0 -0 -0 -0 0 -0 -0 -0 -0 -0 -0 -0 -0 -0 -0 0 -0 -0 -0 0 0 0 0 0 0 0 0 0 0 0 -0 0 0 0 0 0 0 0 0 0 0 0 0
0 0 0 -0 0 0 -0 0 -0 -0 -0 -0 0 -0 -0 -0 -0 0 0 0 0 0 0 0 0 0 -0 -0 0 -0 -0 -0 0 0 0 0 0 0 0 0 0 0 0
0 0 0 0 0 0 0 0 -0 -0 0 0 0 0 0 0 0 0 0 0 0 -0 0 0 0 0 0 0 -0 0 0 0 0 0 0 0 0 0 0 0 0 0 0
0 0 0 0 0 0 0 0 -0 0 0 0 0 0 0 0 0 0 0 0 0 0 0 0 0 0 0 0 0 0 0 0 0 0 0 0 0 0 0 0 0 0 0
Wind_Speed_500mb
36 36 31 25 17 11 9 5 7 12 16 18 19 20 14 12 16 18 20 17 24 21 19 18 23 28 31 34 34 43 44 40 38 41 22 32 29 38 44 51 56 56 55
37 38 35 28 20 12 10 4 5 10 12 13 17 11 10 6 17 27 23 7 7 14 18 23 20 20 27 32 37 42 42 43 45 32 41 29 34 37 51 56 55 55 54
41 42 38 31 21 14 11 5 1 4 10 14 15 11 8 9 14 22 22 15 8 12 18 24 28 27 21 28 36 38 30 28 36 35 32 27 12 41 47 52 50 61 60
41 42 38 32 24 16 14 9 4 5 7 12 11 17 15 9 10 15 20 18 8 11 21 26 28 29 28 32 32 33 31 35 32 45 29 28 42 29 41 50 53 58 48
44 44 40 34 25 20 17 12 7 6 5 11 14 16 16 21 5 4 17 22 19 10 12 30 33 33 31 28 34 36 37 39 35 32 36 35 51 51 50 54 58 50 48
42 43 40 34 28 21 19 14 10 7 3 6 12 15 19 22 18 4 9 17 18 11 15 23 29 33 33 32 37 36 39 40 40 34 41 43 53 44 59 72 64 57 41
42 45 45 39 32 26 22 16 12 8 5 4 8 12 20 33 29 21 21 25 20 18 19 24 23 27 32 36 39 41 41 44 46 42 43 42 42 63 69 77 70 64 48
42 47 44 37 32 29 24 18 15 11 7 4 6 12 16 24 27 27 27 27 26 25 24 24 24 27 34 39 40 47 51 51 57 42 37 37 34 38 57 82 77 64 57
45 46 43 37 32 30 27 21 16 14 10 6 6 9 14 16 23 26 23 33 27 23 23 27 25 31 37 43 45 53 52 54 48 41 33 29 37 52 75 74 67 66 41
46 44 42 37 32 31 27 23 18 15 12 9 8 8 12 16 15 17 17 18 31 28 26 27 37 37 36 44 46 51 49 45 42 37 30 17 29 45 53 61 59 52 51
46 44 42 37 34 31 28 26 21 17 15 12 10 12 12 15 15 18 21 24 30 28 28 20 24 36 40 45 44 44 42 37 28 15 32 22 25 44 57 64 52 32 29
45 43 41 38 37 34 31 27 24 20 18 16 13 13 15 15 16 20 20 27 31 33 31 28 31 39 43 38 42 39 35 30 34 29 36 34 39 51 59 61 38 25 22
46 43 42 41 40 37 34 29 26 22 20 19 16 16 18 15 17 31 19 24 23 26 34 43 41 32 30 34 32 36 38 37 36 34 30 42 46 63 51 48 24 25 24
48 45 43 42 42 40 36 31 27 25 23 22 20 19 22 18 20 22 23 24 25 22 25 33 40 41 39 36 38 37 40 41 37 41 39 40 56 42 39 32 25 25 27
52 47 45 44 44 43 39 34 30 28 26 25 24 23 25 23 22 23 23 26 25 25 24 27 29 28 31 30 36 40 37 37 38 38 34 34 34 34 38 32 29 35 28
54 50 47 46 48 47 44 39 35 33 30 27 26 26 26 26 25 24 24 27 26 24 25 26 23 25 41 44 42 36 39 40 46 44 39 35 33 36 34 31 26 35 26
57 56 53 51 51 50 46 44 40 37 34 30 28 30 30 30 28 26 26 26 27 26 23 23 26 38 39 38 37 36 38 36 36 38 38 29 31 29 26 24 24 28 30
56 58 55 51 51 50 48 44 42 41 38 34 31 32 35 33 32 31 28 27 28 28 26 23 24 32 35 35 38 34 32 33 30 29 25 23 26 27 25 24 23 23 21
55 60 58 55 52 54 52 48 45 43 41 38 35 34 36 38 36 34 33 31 29 28 25 22 22 22 31 31 31 27 24 24 25 24 23 24 25 25 25 20 19 17 16
46 53 57 57 55 56 55 53 50 47 45 42 39 36 36 40 40 38 36 33 30 28 25 22 20 20 28 31 32 28 17 23 21 25 25 26 28 28 28 23 20 14 6
43 51 57 64 69 68 68 60 55 52 47 42 40 38 37 40 43 44 39 36 32 28 27 25 24 23 22 34 37 37 27 23 22 21 29 30 29 25 20 13 10 8 10
45 53 57 60 64 63 68 63 63 53 48 45 43 41 40 39 41 47 42 38 37 34 31 28 26 25 32 38 40 42 37 33 22 18 21 24 20 16 13 8 8 13 19
47 51 52 57 59 66 69 66 69 58 53 50 49 46 43 40 40 44 43 40 44 36 34 32 30 30 35 39 42 43 40 41 33 23 24 20 17 14 12 14 20 25 29
53 45 52 55 60 67 75 68 58 58 58 56 53 51 48 45 42 40 40 40 41 39 38 37 36 35 35 36 46 46 42 39 34 28 18 16 16 18 21 23 24 26 22
46 43 49 55 60 61 66 64 61 61 65 64 61 58 51 53 49 46 45 44 44 44 42 42 40 43 41 40 45 44 41 37 27 19 19 19 18 21 21 17 10 6 8
47 43 43 44 52 58 62 66 67 68 71 71 69 66 59 56 50 48 45 48 43 50 49 44 42 39 40 43 43 42 36 29 26 21 19 19 18 16 14 12 11 19 17
Wind_Direction_500mb
208 203 201 197 198 211 227 264 307 318 334 345 340 339 352 12 350 336 301 280 256 235 229 194 177 172 175 176 171 172 174 176 174 172 169 180 172 168 173 174 163 164 160
198 196 197 195 196 206 210 226 311 318 344 330 350 14 15 27 30 26 31 63 169 200 192 166 166 169 172 169 171 168 170 176 177 166 158 149 158 157 164 151 154 169 164
195 194 194 194 193 196 193 185 268 357 7 11 16 3 342 336 11 31 27 41 136 174 173 173 167 174 168 165 166 167 177 171 165 172 164 145 159 139 158 162 160 164 160
194 193 191 191 189 188 178 168 165 80 5 45 358 338 349 324 322 28 32 23 60 151 178 171 174 172 173 189 176 172 171 167 168 170 171 174 162 146 131 156 158 171 165
190 189 189 187 185 178 177 171 162 112 46 26 22 12 3 10 341 33 26 33 68 92 161 179 179 181 191 181 183 174 170 165 170 167 153 153 165 157 143 144 149 149 159
183 183 182 181 179 175 177 174 171 140 126 30 21 26 19 12 28 49 45 48 48 72 123 156 176 187 189 185 173 169 165 166 160 153 160 163 166 161 144 144 149 141 145
177 178 178 178 178 179 179 177 171 159 151 70 42 24 12 26 46 71 70 46 63 61 116 142 144 156 167 163 165 158 156 146 144 140 148 167 164 159 162 160 151 147 149
175 177 178 177 180 181 181 176 173 172 155 113 69 43 53 53 65 63 55 62 66 65 96 127 136 138 146 148 147 145 142 143 148 124 129 166 167 182 183 169 159 148 145
171 176 175 178 181 182 182 178 172 175 168 142 104 74 62 66 63 71 62 54 58 69 101 104 114 125 128 136 140 150 145 150 139 137 123 132 164 174 168 165 163 163 159
169 175 177 178 180 182 183 180 176 178 172 151 125 115 80 79 74 65 67 66 63 76 106 98 95 112 120 134 144 150 148 154 150 165 149 150 152 161 168 173 171 168 154
171 175 178 179 179 180 183 183 181 179 175 157 147 128 109 98 91 76 75 93 76 87 100 100 105 114 117 134 141 141 144 157 166 182 176 215 180 171 172 165 158 156 173
174 174 178 179 179 180 183 182 184 183 180 165 159 137 123 114 102 92 94 97 93 85 89 117 122 122 115 127 145 145 150 148 146 170 185 190 189 172 166 163 152 155 180
175 174 178 181 182 183 185 184 185 186 182 170 169 144 135 124 115 108 101 107 103 96 96 95 110 133 132 126 127 126 128 127 140 147 156 179 171 156 161 163 139 171 169
179 178 181 185 184 185 187 185 184 187 183 175 171 156 144 135 129 119 107 111 114 107 103 97 94 103 117 132 129 128 125 126 123 132 137 135 152 157 154 155 166 167 161
184 181 185 186 186 186 187 187 183 185 182 177 175 167 154 146 138 134 128 118 115 115 109 102 104 103 104 114 121 124 128 129 131 128 127 141 156 161 160 175 163 159 154
189 186 187 188 188 188 187 186 183 184 181 179 176 173 162 157 153 146 139 132 127 122 116 111 117 131 125 133 129 125 128 133 141 147 152 155 166 156 158 161 162 144 160
194 192 191 190 189 188 187 186 184 183 183 180 177 175 171 167 161 153 148 142 140 139 133 126 123 132 133 131 128 130 128 125 128 129 127 129 139 146 153 157 157 169 169
198 196 193 190 190 188 187 186 185 185 185 183 182 179 178 176 168 165 160 157 149 146 140 137 136 146 142 141 137 132 139 140 143 142 135 160 161 165 168 175 178 187 193
201 198 195 191 187 187 186 187 187 188 189 188 188 184 180 181 177 173 173 166 162 159 155 153 152 162 167 166 161 141 145 152 155 162 166 167 175 171 171 163 169 174 184
200 197 193 191 189 187 187 187 190 191 192 192 190 187 183 184 184 182 181 176 174 172 170 173 173 183 193 189 182 167 159 177 174 179 175 169 162 157 156 151 151 153 177
193 191 190 192 193 187 186 189 193 196 193 192 191 189 186 185 186 187 187 185 182 187 179 185 187 189 194 188 184 167 156 171 164 168 161 158 156 152 151 151 159 194 249
188 185 190 194 195 192 191 190 194 196 192 190 191 191 189 183 187 189 188 189 184 190 189 190 190 191 189 183 178 172 163 169 154 156 163 162 164 176 189 212 255 277 282
189 187 191 195 196 196 198 197 195 192 192 192 191 190 191 184 191 186 187 186 190 189 189 191 187 188 187 184 179 179 174 167 148 183 190 184 198 225 248 264 275 275 276
189 191 191 194 199 202 204 203 194 193 192 193 192 191 191 186 191 189 191 187 190 187 188 188 185 184 185 185 182 182 181 183 187 186 190 215 241 264 278 278 268 265 284
188 189 191 198 203 205 206 203 198 194 195 194 193 193 194 193 196 190 193 191 199 188 189 191 188 186 190 192 195 194 194 196 198 207 232 249 256 262 269 272 250 254 286
197 194 197 201 205 207 205 204 201 198 195 195 196 196 193 198 198 197 199 197 204 195 191 196 195 201 202 202 208 205 210 203 196 213 219 230 237 241 238 227 210 201 215
Wind_Speed_850mb
36 36 31 25 17 11 9 5 7 12 16 18 19 20 14 12 16 18 20 17 24 21 19 18 23 28 31 34 34 43 44 40 38 41 22 32 29 38 44 51 56 56 55
37 38 35 28 20 12 10 4 5 10 12 13 17 11 10 6 17 27 23 7 7 14 18 23 20 20 27 32 37 42 42 43 45 32 41 29 34 37 51 56 55 55 54
41 42 38 31 21 14 11 5 1 4 10 14 15 11 8 9 14 22 22 15 8 12 18 24 28 27 21 28 36 38 30 28 36 35 32 27 12 41 47 52 50 61 60
41 42 38 32 24 16 14 9 4 5 7 12 11 17 15 9 10 15 20 18 8 11 21 26 28 29 28 32 32 33 31 35 32 45 29 28 42 29 41 50 53 58 48
44 44 40 34 25 20 17 12 7 6 5 11 14 16 16 21 5 4 17 22 19 10 12 30 33 33 31 28 34 36 37 39 35 32 36 35 51 51 50 54 58 50 48
42 43 40 34 28 21 19 14 10 7 3 6 12 15 19 22 18 4 9 17 18 11 15 23 29 33 33 32 37 36 39 40 40 34 41 43 53 44 59 72 64 57 41
42 45 45 39 32 26 22 16 12 8 5 4 8 12 20 33 29 21 21 25 20 18 19 24 23 27 32 36 39 41 41 44 46 42 43 42 42 63 69 77 70 64 48
42 47 44 37 32 29 24 18 15 11 7 4 6 12 16 24 27 27 27 27 26 25 24 24 24 27 34 39 40 47 51 51 57 42 37 37 34 38 57 82 77 64 57
45 46 43 37 32 30 27 21 16 14 10 6 6 9 14 16 23 26 23 33 27 23 23 27 25 31 37 43 45 53 52 54 48 41 33 29 37 52 75 74 67 66 41
46 44 42 37 32 31 27 23 18 15 12 9 8 8 12 16 15 17 17 18 31 28 26 27 37 37 36 44 46 51 49 45 42 37 30 17 29 45 53 61 59 52 51
46 44 42 37 34 31 28 26 21 17 15 12 10 12 12 15 15 18 21 24 30 28 28 20 24 36 40 45 44 44 42 37 28 15 32 22 25 44 57 64 52 32 29
45 43 41 38 37 34 31 27 24 20 18 16 13 13 15 15 16 20 20 27 31 33 31 28 31 39 43 38 42 39 35 30 34 29 36 34 39 51 59 61 38 25 22
46 43 42 41 40 37 34 29 26 22 20 19 16 16 18 15 17 31 19 24 23 26 34 43 41 32 30 34 32 36 38 37 36 34 30 42 46 63 51 48 24 25 24
48 45 43 42 42 40 36 31 27 25 23 22 20 19 22 18 20 22 23 24 25 22 25 33 40 41 39 36 38 37 40 41 37 41 39 40 56 42 39 32 25 25 27
52 47 45 44 44 43 39 34 30 28 26 25 24 23 25 23 22 23 23 26 25 25 24 27 29 28 31 30 36 40 37 37 38 38 34 34 34 34 38 32 29 35 28
54 50 47 46 48 47 44 39 35 33 30 27 26 26 26 26 25 24 24 27 26 24 25 26 23 25 41 44 42 36 39 40 46 44 39 35 33 36 34 31 26 35 26
57 56 53 51 51 50 46 44 40 37 34 30 28 30 30 30 28 26 26 26 27 26 23 23 26 38 39 38 37 36 38 36 36 38 38 29 31 29 26 24 24 28 30
56 58 55 51 51 50 48 44 42 41 38 34 31 32 35 33 32 31 28 27 28 28 26 23 24 32 35 35 38 34 32 33 30 29 25 23 26 27 25 24 23 23 21
55 60 58 55 52 54 52 48 45 43 41 38 35 34 36 38 36 34 33 31 29 28 25 22 22 22 31 31 31 27 24 24 25 24 23 24 25 25 25 20 19 17 16
46 53 57 57 55 56 55 53 50 47 45 42 39 36 36 40 40 38 36 33 30 28 25 22 20 20 28 31 32 28 17 23 21 25 25 26 28 28 28 23 20 14 6
43 51 57 64 69 68 68 60 55 52 47 42 40 38 37 40 43 44 39 36 32 28 27 25 24 23 22 34 37 37 27 23 22 21 29 30 29 25 20 13 10 8 10
45 53 57 60 64 63 68 63 63 53 48 45 43 41 40 39 41 47 42 38 37 34 31 28 26 25 32 38 40 42 37 33 22 18 21 24 20 16 13 8 8 13 19
47 51 52 57 59 66 69 66 69 58 53 50 49 46 43 40 40 44 43 40 44 36 34 32 30 30 35 39 42 43 40 41 33 23 24 20 17 14 12 14 20 25 29
53 45 52 55 60 67 75 68 58 58 58 56 53 51 48 45 42 40 40 40 41 39 38 37 36 35 35 36 46 46 42 39 34 28 18 16 16 18 21 23 24 26 22
46 43 49 55 60 61 66 64 61 61 65 64 61 58 51 53 49 46 45 44 44 44 42 42 40 43 41 40 45 44 41 37 27 19 19 19 18 21 21 17 10 6 8
47 43 43 44 52 58 62 66 67 68 71 71 69 66 59 56 50 48 45 48 43 50 49 44 42 39 40 43 43 42 36 29 26 21 19 19 18 16 14 12 11 19 17
Wind_Direction_850mb
208 203 201 197 198 211 227 264 307 318 334 345 340 339 352 12 350 336 301 280 256 235 229 194 177 172 175 176 171 172 174 176 174 172 169 180 172 168 173 174 163 164 160
198 196 197 195 196 206 210 226 311 318 344 330 350 14 15 27 30 26 31 63 169 200 192 166 166 169 172 169 171 168 170 176 177 166 158 149 158 157 164 151 154 169 164
195 194 194 194 193 196 193 185 268 357 7 11 16 3 342 336 11 31 27 41 136 174 173 173 167 174 168 165 166 167 177 171 165 172 164 145 159 139 158 162 160 164 160
194 193 191 191 189 188 178 168 165 80 5 45 358 338 349 324 322 28 32 23 60 151 178 171 174 172 173 189 176 172 171 167 168 170 171 174 162 146 131 156 158 171 165
190 189 189 187 185 178 177 171 162 112 46 26 22 12 3 10 341 33 26 33 68 92 161 179 179 181 191 181 183 174 170 165 170 167 153 153 165 157 143 144 149 149 159
183 183 182 181 179 175 177 174 171 140 126 30 21 26 19 12 28 49 45 48 48 72 123 156 176 187 189 185 173 169 165 166 160 153 160 163 166 161 144 144 149 141 145
177 178 178 178 178 179 179 177 171 159 151 70 42 24 12 26 46 71 70 46 63 61 116 142 144 156 167 163 165 158 156 146 144 140 148 167 164 159 162 160 151 147 149
175 177 178 177 180 181 181 176 173 172 155 113 69 43 53 53 65 63 55 62 66 65 96 127 136 138 146 148 147 145 142 143 148 124 129 166 167 182 183 169 159 148 145
171 176 175 178 181 182 182 178 172 175 168 142 104 74 62 66 63 71 62 54 58 69 101 104 114 125 128 136 140 150 145 150 139 137 123 132 164 174 168 165 163 163 159
169 175 177 178 180 182 183 180 176 178 172 151 125 115 80 79 74 65 67 66 63 76 106 98 95 112 120 134 144 150 148 154 150 165 149 150 152 161 168 173 171 168 154
171 175 178 179 179 180 183 183 181 179 175 157 147 128 109 98 91 76 75 93 76 87 100 100 105 114 117 134 141 141 144 157 166 182 176 215 180 171 172 165 158 156 173
174 174 178 179 179 180 183 182 184 183 180 165 159 137 123 114 102 92 94 97 93 85 89 117 122 122 115 127 145 145 150 148 146 170 185 190 189 172 166 163 152 155 180
175 174 178 181 182 183 185 184 185 186 182 170 169 144 135 124 115 108 101 107 103 96 96 95 110 133 132 126 127 126 128 127 140 147 156 179 171 156 161 163 139 171 169
179 178 181 185 184 185 187 185 184 187 183 175 171 156 144 135 129 119 107 111 114 107 103 97 94 103 117 132 129 128 125 126 123 132 137 135 152 157 154 155 166 167 161
184 181 185 186 186 186 187 187 183 185 182 177 175 167 154 146 138 134 128 118 115 115 109 102 104 103 104 114 121 124 128 129 131 128 127 141 156 161 160 175 163 159 154
189 186 187 188 188 188 187 186 183 184 181 179 176 173 162 157 153 146 139 132 127 122 116 111 117 131 125 133 129 125 128 133 141 147 152 155 166 156 158 161 162 144 160
194 192 191 190 189 188 187 186 184 183 183 180 177 175 171 167 161 153 148 142 140 139 133 126 123 132 133 131 128 130 128 125 128 129 127 129 139 146 153 157 157 169 169
198 196 193 190 190 188 187 186 185 185 185 183 182 179 178 176 168 165 160 157 149 146 140 137 136 146 142 141 137 132 139 140 143 142 135 160 161 165 168 175 178 187 193
201 198 195 191 187 187 186 187 187 188 189 188 188 184 180 181 177 173 173 166 162 159 155 153 152 162 167 166 161 141 145 152 155 162 166 167 175 171 171 163 169 174 184
200 197 193 191 189 187 187 187 190 191 192 192 190 187 183 184 184 182 181 176 174 172 170 173 173 183 193 189 182 167 159 177 174 179 175 169 162 157 156 151 151 153 177
193 191 190 192 193 187 186 189 193 196 193 192 191 189 186 185 186 187 187 185 182 187 179 185 187 189 194 188 184 167 156 171 164 168 161 158 156 152 151 151 159 194 249
188 185 190 194 195 192 191 190 194 196 192 190 191 191 189 183 187 189 188 189 184 190 189 190 190 191 189 183 178 172 163 169 154 156 163 162 164 176 189 212 255 277 282
189 187 191 195 196 196 198 197 195 192 192 192 191 190 191 184 191 186 187 186 190 189 189 191 187 188 187 184 179 179 174 167 148 183 190 184 198 225 248 264 275 275 276
189 191 191 194 199 202 204 203 194 193 192 193 192 191 191 186 191 189 191 187 190 187 188 188 185 184 185 185 182 182 181 183 187 186 190 215 241 264 278 278 268 265 284
188 189 191 198 203 205 206 203 198 194 195 194 193 193 194 193 196 190 193 191 199 188 189 191 188 186 190 192 195 194 194 196 198 207 232 249 256 262 269 272 250 254 286
197 194 197 201 205 207 205 204 201 198 195 195 196 196 193 198 198 197 199 197 204 195 191 196 195 201 202 202 208 205 210 203 196 213 219 230 237 241 238 227 210 201 215